TimeCDT,TemperatureF,Dew PointF,Humidity,Sea Level PressureIn,VisibilityMPH,Wind Direction,Wind SpeedMPH,Gust SpeedMPH,PrecipitationIn,Events,Conditions,WindDirDegrees,DateUTC
12:53 AM,79.0,69.1,72,30.07,10.0,SSW,6.9,-,N/A,,Clear,210,2013-07-09 05:53:00
1:53 AM,78.1,70.0,76,30.07,10.0,Calm,Calm,-,N/A,,Clear,0,2013-07-09 06:53:00
2:53 AM,75.9,70.0,82,30.07,10.0,Calm,Calm,-,N/A,,Clear,0,2013-07-09 07:53:00
3:53 AM,75.0,71.1,87,30.07,10.0,Calm,Calm,-,N/A,,Clear,0,2013-07-09 08:53:00
4:53 AM,73.9,71.1,91,30.08,10.0,Calm,Calm,-,N/A,,Clear,0,2013-07-09 09:53:00
5:53 AM,73.9,71.1,91,30.08,8.0,Calm,Calm,-,N/A,,Clear,0,2013-07-09 10:53:00
7:53 AM,81.0,73.9,79,30.09,10.0,SW,4.6,-,N/A,,Clear,230,2013-07-09 12:53:00
8:53 AM,82.0,73.9,76,30.08,10.0,SSW,6.9,-,N/A,,Clear,200,2013-07-09 13:53:00
9:53 AM,86.0,73.9,67,30.07,10.0,West,6.9,-,N/A,,Clear,270,2013-07-09 14:53:00
10:53 AM,89.1,73.9,61,30.07,10.0,SW,8.1,-,N/A,,Clear,230,2013-07-09 15:53:00
11:53 AM,91.0,73.9,57,30.06,10.0,SSW,9.2,-,N/A,,Clear,210,2013-07-09 16:53:00
12:53 PM,93.0,73.9,54,30.06,10.0,SW,8.1,-,N/A,,Partly Cloudy,230,2013-07-09 17:53:00
1:53 PM,93.9,73.0,51,30.03,9.0,WSW,11.5,19.6,N/A,,Partly Cloudy,250,2013-07-09 18:53:00
2:53 PM,93.9,72.0,49,30.02,10.0,WSW,12.7,-,N/A,,Clear,240,2013-07-09 19:53:00
3:53 PM,93.0,71.1,49,30.00,10.0,SW,9.2,-,N/A,,Clear,230,2013-07-09 20:53:00
4:53 PM,93.9,72.0,49,29.98,10.0,SW,9.2,-,N/A,,Clear,220,2013-07-09 21:53:00
5:53 PM,91.9,72.0,52,29.96,10.0,SW,8.1,-,N/A,,Clear,220,2013-07-09 22:53:00
6:53 PM,91.0,72.0,53,29.96,10.0,SSW,8.1,-,N/A,,Clear,210,2013-07-09 23:53:00
7:53 PM,87.1,73.9,65,29.96,10.0,South,6.9,-,N/A,,Clear,190,2013-07-10 00:53:00
8:53 PM,84.0,73.0,69,29.96,10.0,South,5.8,-,N/A,,Clear,190,2013-07-10 01:53:00
9:53 PM,84.0,73.0,69,29.98,10.0,South,6.9,-,N/A,,Clear,190,2013-07-10 02:53:00
10:53 PM,84.0,73.0,69,29.98,10.0,South,6.9,-,N/A,,Clear,180,2013-07-10 03:53:00
11:53 PM,82.9,73.0,72,29.98,10.0,South,6.9,-,N/A,,Clear,180,2013-07-10 04:53:00